Location: Morris County Observatory
(40.8287°N, 74.5644°W)
Time: 10:14:54
(UTC-05:00)

N. Korean satellite - Visible Passes

Search period start: 27 November 2020 00:00
Search period end: 07 December 2020 00:00
Orbit: 452 x 504 km, 97.2° (Epoch: 26 November)

Date Brightness Start Highest point End Pass type
(mag) Time Alt. Az. Time Alt. Az. Time Alt. Az.
27 Nov 6.4 05:38:16 10° N 05:41:50 71° WNW 05:45:28 10° SSW visible
27 Nov 10.0 17:48:40 10° WSW 17:49:53 12° W 17:51:07 10° WNW visible
28 Nov 7.5 05:12:04 10° NNE 05:15:34 49° E 05:19:07 10° S visible
28 Nov 9.1 17:20:34 10° SSW 17:23:25 25° W 17:26:18 10° NW visible
29 Nov 9.1 04:46:17 10° NE 04:49:12 23° E 04:52:07 10° SSE visible
29 Nov 7.8 06:19:37 10° NNW 06:22:24 21° WNW 06:25:13 10° WSW visible
30 Nov 10.1 04:21:42 10° ENE 04:22:43 11° E 04:23:43 10° ESE visible
30 Nov 6.8 05:52:47 10° N 05:56:15 44° WNW 05:59:45 10° SSW visible
01 Dec 6.6 05:26:21 10° NNE 05:29:59 80° E 05:33:40 10° S visible
01 Dec 9.7 17:35:39 10° SW 17:37:53 16° W 17:40:08 10° NW visible
02 Dec 8.3 05:00:17 10° NNE 05:03:39 34° E 05:07:01 10° SSE visible
02 Dec 8.3 17:08:16 10° SSW 17:11:25 35° W 17:14:38 10° NNW visible
03 Dec 9.6 04:34:47 10° NE 04:37:12 17° E 04:39:36 10° SE visible
03 Dec 7.4 06:07:21 10° N 06:10:33 29° WNW 06:13:46 10° SW visible
04 Dec 6.5 05:40:42 10° N 05:44:19 65° WNW 05:47:58 10° SSW visible
04 Dec 10.1 17:51:26 10° WSW 17:52:18 11° W 17:53:11 10° WNW visible
05 Dec 7.3 05:14:24 10° NNE 05:18:00 54° E 05:21:36 10° S visible
05 Dec 9.2 17:22:58 10° SSW 17:25:46 23° W 17:28:35 10° NW visible
06 Dec 8.9 04:48:30 10° NE 04:51:34 25° E 04:54:38 10° SSE visible
06 Dec 7.9 06:22:00 10° NNW 06:24:45 20° WNW 06:27:30 10° WSW visible
